User: anonymous   Login
Location: Bottenau
(48.5138°N, 8.0462°E)
Time: 13:06:01
(UTC+00:00)
Language:

COSMOS 2428 - Orbit

View from above orbital plane
View from above orbital plane
View from above satellite
View from above satellite

Ground track
Ground track

The orbit data is extracted from the following two-line orbital elements,

1 31792U 07029A   21173.57656429  .00000332  00000-0  20626-3 0  9995
2 31792  70.8995 215.2112 0010768 235.4946 124.5158 14.12289585721125
Epoch (UTC): 22 June 2021 13:50:15
Eccentricity: 0.0010768
inclination: 70.8995°
perigee height: 844 km
apogee height: 859 km
right ascension of ascending node: 215.2112°
argument of perigee: 235.4946°
revolutions per day: 14.12289585
mean anomaly at epoch: 124.5158°
orbit number at epoch: 72112

The dashed part of the orbit path shows where the satellite is in the earth's shadow,  

DLR